Dilworth, MN

12:11 PM CST on February 22, 2017 (GMT -0600)
Moorhead Municipal

Weather History for KJKJ - December, 2013

Change the Weather History Date:

Sunday, December 22, 2013

  Actual Average (KFAR) Record (KFAR)
Temperature  
Mean Temperature -8 °F -  
Max Temperature -5 °F 18 °F 43 °F (1899)
Min Temperature -11 °F 4 °F -28 °F (1884)
Degree Days  
Heating Degree Days 73    
Moisture  
Dew Point -11 °F    
Average Humidity 84    
Maximum Humidity 92    
Minimum Humidity 71    
Precipitation  
Precipitation 0.00 in - - ()
Sea Level Pressure  
Sea Level Pressure 30.24 in    
Wind  
Wind Speed 15 mph (North)    
Max Wind Speed 20 mph    
Max Gust Speed 20 mph    
Visibility 9 miles    
Events Snow    
Averages and records for this station are not official NWS values.
T = Trace of Precipitation, MM = Missing Value Source: NWS Daily Summary

Daily Weather History Graph

Daily Weather History Graph

Search for Another Location

Airport or City:

Trip Planner

Search our weather history database for the weather conditions in past years. The results will help you decide how hot, cold, wet, or windy it might be!

Date:

Astronomy

Dec. 22, 2013 Rise Set
Actual Time 8:09 AM CST 4:41 PM CST
Civil Twilight 7:34 AM CST 5:16 PM CST
Nautical Twilight 6:55 AM CST 5:55 PM CST
Astronomical Twilight 6:18 AM CST 6:32 PM CST
Moon 10:13 PM CST 10:49 AM CST
Length of Visible Light 9h 42m
Length of Day
8h 31m
Waning Gibbous, 76% of the Moon is Illuminated
Dec 22
Waning Gibbous
Dec 25
Last Quarter
Jan 1
New
Jan 7
First Quarter
Jan 15
Full

Hourly Weather History & Observations

Time (CST) Temp. Windchill Dew Point Humidity Pressure Visibility Wind Dir Wind Speed Gust Speed Precip Events Conditions
12:14 AM -5.8 °F -28.2 °F -7.6 °F 92% 30.12 in 10.0 mi North 17.3 mph - N/A   Mostly Cloudy
12:35 AM -5.8 °F -29.4 °F -7.6 °F 92% 30.11 in 10.0 mi North 19.6 mph - N/A   Mostly Cloudy
12:55 AM -5.8 °F -25.2 °F -7.6 °F 92% 30.11 in 10.0 mi North 12.7 mph - N/A   Mostly Cloudy
1:14 AM -5.8 °F -26.8 °F -7.6 °F 92% 30.11 in 10.0 mi North 15.0 mph - N/A   Overcast
1:35 AM -5.8 °F -26.0 °F -9.4 °F 84% 30.12 in 10.0 mi North 13.8 mph - N/A   Overcast
1:54 AM -5.8 °F -26.8 °F -7.6 °F 92% 30.12 in 10.0 mi North 15.0 mph - N/A   Scattered Clouds
2:15 AM -5.8 °F -26.0 °F -7.6 °F 92% 30.13 in 10.0 mi North 13.8 mph - N/A   Scattered Clouds
2:35 AM -5.8 °F -28.2 °F -7.6 °F 92% 30.14 in 10.0 mi North 17.3 mph - N/A   Mostly Cloudy
2:54 AM -5.8 °F -27.5 °F -7.6 °F 92% 30.15 in 10.0 mi North 16.1 mph - N/A   Mostly Cloudy
3:15 AM -5.8 °F -26.8 °F -7.6 °F 92% 30.15 in 10.0 mi North 15.0 mph - N/A   Scattered Clouds
3:34 AM -5.8 °F -26.8 °F -9.4 °F 84% 30.16 in 10.0 mi North 15.0 mph - N/A   Mostly Cloudy
3:55 AM -5.8 °F -26.8 °F -9.4 °F 84% 30.16 in 10.0 mi North 15.0 mph - N/A   Overcast
4:15 AM -5.8 °F -26.0 °F -9.4 °F 84% 30.16 in 10.0 mi North 13.8 mph - N/A   Mostly Cloudy
4:34 AM -5.8 °F -27.5 °F -9.4 °F 84% 30.15 in 10.0 mi North 16.1 mph 19.6 mph N/A   Mostly Cloudy
4:55 AM -5.8 °F -26.8 °F -9.4 °F 84% 30.16 in 10.0 mi North 15.0 mph - N/A   Scattered Clouds
5:15 AM -7.6 °F -27.5 °F -9.4 °F 92% 30.16 in 10.0 mi North 12.7 mph - N/A   Clear
5:34 AM -7.6 °F -28.3 °F -9.4 °F 92% 30.16 in 10.0 mi North 13.8 mph - N/A   Scattered Clouds
5:55 AM -7.6 °F -28.3 °F -11.2 °F 84% 30.16 in 10.0 mi North 13.8 mph - N/A   Overcast
6:15 AM -7.6 °F -26.6 °F -11.2 °F 84% 30.16 in 10.0 mi North 11.5 mph - N/A   Overcast
6:34 AM -7.6 °F -27.5 °F -9.4 °F 92% 30.17 in 10.0 mi North 12.7 mph - N/A   Overcast
6:55 AM -7.6 °F -29.1 °F -9.4 °F 92% 30.17 in 10.0 mi North 15.0 mph - N/A   Mostly Cloudy
7:15 AM -5.8 °F -26.8 °F -9.4 °F 84% 30.18 in 10.0 mi NNW 15.0 mph - N/A   Mostly Cloudy
7:34 AM -5.8 °F -26.8 °F -9.4 °F 84% 30.18 in 10.0 mi North 15.0 mph - N/A   Overcast
7:55 AM -5.8 °F -26.0 °F -9.4 °F 84% 30.19 in 10.0 mi North 13.8 mph - N/A   Overcast
8:15 AM -7.6 °F -26.6 °F -9.4 °F 92% 30.19 in 10.0 mi North 11.5 mph - N/A   Mostly Cloudy
8:34 AM -7.6 °F -26.6 °F -9.4 °F 92% 30.19 in 10.0 mi North 11.5 mph - N/A   Mostly Cloudy
8:55 AM -5.8 °F -27.5 °F -9.4 °F 84% 30.20 in 4.0 mi North 16.1 mph - N/A   Overcast
9:15 AM -5.8 °F -27.5 °F -9.4 °F 84% 30.20 in 7.0 mi North 16.1 mph - N/A   Overcast
9:34 AM -5.8 °F -26.0 °F -9.4 °F 84% 30.20 in 5.0 mi North 13.8 mph - N/A   Overcast
9:55 AM -5.8 °F -26.0 °F -9.4 °F 84% 30.21 in 10.0 mi North 13.8 mph - N/A   Overcast
10:14 AM -5.8 °F -26.8 °F -9.4 °F 84% 30.21 in 10.0 mi North 15.0 mph - N/A   Overcast
10:35 AM -5.8 °F -26.8 °F -9.4 °F 84% 30.22 in 7.0 mi North 15.0 mph - N/A   Overcast
10:55 AM -5.8 °F -25.2 °F -9.4 °F 84% 30.22 in 10.0 mi North 12.7 mph - N/A   Overcast
11:14 AM -5.8 °F -25.2 °F -9.4 °F 84% 30.22 in 10.0 mi North 12.7 mph - N/A   Mostly Cloudy
11:28 AM -5.8 °F -26.0 °F -9.4 °F 84% 30.22 in 10.0 mi North 13.8 mph - N/A   Scattered Clouds
3:03 PM -5.8 °F -26.8 °F -9.4 °F 84% 30.24 in 5.0 mi North 15.0 mph - N/A   Haze
3:15 PM -5.8 °F -26.8 °F -9.4 °F 84% 30.24 in 7.0 mi North 15.0 mph - N/A   Overcast
3:34 PM -5.8 °F -25.2 °F -9.4 °F 84% 30.25 in 10.0 mi North 12.7 mph - N/A   Overcast
3:55 PM -5.8 °F -23.4 °F -9.4 °F 84% 30.27 in 10.0 mi North 10.4 mph - N/A   Overcast
4:15 PM -5.8 °F -25.2 °F -9.4 °F 84% 30.29 in 5.0 mi North 12.7 mph - N/A   Overcast
4:34 PM -5.8 °F -26.8 °F -9.4 °F 84% 30.29 in 7.0 mi North 15.0 mph - N/A   Overcast
4:55 PM -5.8 °F -26.8 °F -9.4 °F 84% 30.29 in 10.0 mi North 15.0 mph - N/A   Overcast
5:15 PM -5.8 °F -26.8 °F -9.4 °F 84% 30.30 in 10.0 mi North 15.0 mph - N/A   Overcast
5:34 PM -5.8 °F -25.2 °F -9.4 °F 84% 30.31 in 7.0 mi North 12.7 mph - N/A Snow Light Snow
5:55 PM -5.8 °F -27.5 °F -11.2 °F 77% 30.32 in 7.0 mi North 16.1 mph - N/A   Overcast
6:14 PM -7.6 °F -28.3 °F -11.2 °F 84% 30.33 in 10.0 mi North 13.8 mph - N/A   Mostly Cloudy
6:35 PM -7.6 °F -27.5 °F -11.2 °F 84% 30.33 in 10.0 mi North 12.7 mph - N/A   Clear
6:55 PM -7.6 °F -28.3 °F -11.2 °F 84% 30.34 in 10.0 mi North 13.8 mph - N/A   Clear
7:14 PM -7.6 °F -27.5 °F -13.0 °F 77% 30.34 in 10.0 mi North 12.7 mph - N/A   Clear
7:35 PM -9.4 °F -29.8 °F -14.8 °F 77% 30.35 in 10.0 mi North 12.7 mph - N/A   Clear
7:55 PM -9.4 °F -28.9 °F -14.8 °F 77% 30.35 in 10.0 mi North 11.5 mph - N/A   Clear
8:14 PM -9.4 °F -26.8 °F -14.8 °F 77% 30.35 in 10.0 mi North 9.2 mph - N/A   Clear
8:35 PM -9.4 °F -28.9 °F -14.8 °F 77% 30.36 in 10.0 mi North 11.5 mph - N/A   Clear
8:55 PM -9.4 °F -30.6 °F -14.8 °F 77% 30.37 in 10.0 mi North 13.8 mph - N/A   Clear
9:14 PM -9.4 °F -32.1 °F -14.8 °F 77% 30.37 in 10.0 mi North 16.1 mph - N/A   Clear
9:35 PM -9.4 °F -30.6 °F -14.8 °F 77% 30.37 in 10.0 mi North 13.8 mph - N/A   Clear
9:55 PM -9.4 °F -31.4 °F -14.8 °F 77% 30.38 in 10.0 mi North 15.0 mph - N/A   Clear
10:14 PM -9.4 °F -30.6 °F -14.8 °F 77% 30.39 in 10.0 mi North 13.8 mph - N/A   Clear
10:35 PM -9.4 °F -30.6 °F -16.6 °F 71% 30.40 in 10.0 mi North 13.8 mph - N/A   Clear
10:54 PM -11.2 °F -32.9 °F -16.6 °F 77% 30.41 in 10.0 mi North 13.8 mph - N/A   Clear
11:15 PM -11.2 °F -30.1 °F -16.6 °F 77% 30.41 in 10.0 mi North 10.4 mph - N/A   Clear
11:35 PM -11.2 °F -32.1 °F -16.6 °F 77% 30.42 in 10.0 mi NNW 12.7 mph - N/A   Clear
11:54 PM -11.2 °F -34.4 °F -16.6 °F 77% 30.43 in 10.0 mi NNW 16.1 mph - N/A   Clear